Weather History for TJSJ - March, 2012

Change the Weather History Date:

Wednesday, March 28, 2012

  Actual Average Record
Temperature  
Mean Temperature 79 °F 79 °F  
Max Temperature 85 °F 86 °F 93 °F (1984)
Min Temperature 73 °F 73 °F 65 °F (1916)
Degree Days  
Heating Degree Days 0 0  
Month to date heating degree days 0 0  
Since 1 July heating degree days 0 0  
Cooling Degree Days 14 14  
Month to date cooling degree days 389 386  
Year to date cooling degree days 1153 1137  
Growing Degree Days 30 (Base 50)    
Moisture  
Dew Point 70 °F    
Average Humidity 76    
Maximum Humidity 87    
Minimum Humidity 65    
Precipitation  
Precipitation 0.13 in 0.07 in 1.91 in (1938)
Month to date precipitation 6.44 1.73  
Year to date precipitation 12.14 7.88  
Snow  
Snow 0.00 in 0.00 in - ()
Month to date snowfall 0.0 0.0  
Since 1 July snowfall 0.0 0.0  
Snow Depth 0.00 in    
Sea Level Pressure  
Sea Level Pressure 30.00 in    
Wind  
Wind Speed 9 mph (NE)    
Max Wind Speed 20 mph    
Max Gust Speed 25 mph    
Visibility 9 miles    
Events Rain , Thunderstorm    
T = Trace of Precipitation, MM = Missing Value Source: NWS Daily Summary

Daily Weather History Graph

Daily Weather History Graph

Search for Another Location

Airport or City:

Trip Planner

Search our weather history database for the weather conditions in past years. The results will help you decide how hot, cold, wet, or windy it might be!

Date:

Astronomy

Mar. 28, 2012 Rise Set
Actual Time 6:21 AM AST 6:36 PM AST
Civil Twilight 5:59 AM AST 6:58 PM AST
Nautical Twilight 5:33 AM AST 7:24 PM AST
Astronomical Twilight 5:08 AM AST 7:49 PM AST
Moon 10:16 AM AST (3/28) 11:44 PM AST (3/28)
Length of Visible Light 12h 59m
Length of Day
12h 15m
Waxing Crescent, 30% of the Moon is Illuminated
Mar 28
Waxing Crescent
Mar 30
First Quarter
Apr 6
Full
Apr 13
Last Quarter
Apr 21
New

Hourly Weather History & Observations

Time (AST) Temp. Heat Index Dew Point Humidity Pressure Visibility Wind Dir Wind Speed Gust Speed Precip Events Conditions
12:56 AM 75.9 °F - 69.1 °F 79% 30.02 in 10.0 mi WSW 3.5 mph - N/A   Partly Cloudy
1:56 AM 75.0 °F - 71.1 °F 87% 30.01 in 3.0 mi Calm Calm - 0.03 in Rain Rain
1:58 AM 75.2 °F - 71.6 °F 89% 30.01 in 2.5 mi Calm Calm - 0.01 in Rain Rain
2:02 AM 75.2 °F - 71.6 °F 89% 30.01 in 9.0 mi Calm Calm - 0.02 in Rain Light Rain
2:56 AM 75.0 °F - 69.1 °F 82% 29.99 in 10.0 mi Calm Calm - 0.10 in   Mostly Cloudy
3:56 AM 75.0 °F - 70.0 °F 84% 29.98 in 10.0 mi Calm Calm - 0.00 in   Mostly Cloudy
4:43 AM 75.2 °F - 71.6 °F 89% 29.98 in 10.0 mi Calm Calm - N/A   Mostly Cloudy
4:56 AM 75.0 °F - 71.1 °F 87% 29.98 in 10.0 mi Calm Calm - N/A   Scattered Clouds
5:56 AM 75.9 °F - 71.1 °F 85% 29.99 in 10.0 mi Calm Calm - N/A   Mostly Cloudy
6:56 AM 75.9 °F - 71.1 °F 85% 30.00 in 9.0 mi Calm Calm - N/A   Scattered Clouds
7:56 AM 78.1 °F - 72.0 °F 81% 30.01 in 9.0 mi Calm Calm - N/A   Mostly Cloudy
8:56 AM 80.1 °F 83.2 °F 70.0 °F 71% 30.03 in 9.0 mi NE 8.1 mph - N/A   Mostly Cloudy
9:56 AM 82.9 °F 87.5 °F 71.1 °F 67% 30.03 in 9.0 mi ENE 9.2 mph - N/A   Mostly Cloudy
10:56 AM 84.0 °F 89.0 °F 71.1 °F 65% 30.03 in 9.0 mi ENE 11.5 mph - N/A   Scattered Clouds
11:56 AM 82.9 °F 87.5 °F 71.1 °F 67% 30.03 in 9.0 mi NNE 13.8 mph - N/A   Mostly Cloudy
12:56 PM 82.9 °F 87.0 °F 70.0 °F 65% 30.01 in 9.0 mi ENE 12.7 mph - N/A   Mostly Cloudy
1:56 PM 82.9 °F 87.0 °F 70.0 °F 65% 29.99 in 10.0 mi NE 15.0 mph - N/A   Scattered Clouds
2:56 PM 82.0 °F 85.9 °F 70.0 °F 67% 29.96 in 10.0 mi NE 15.0 mph 23.0 mph N/A   Scattered Clouds
3:56 PM 81.0 °F 84.1 °F 69.1 °F 67% 29.96 in 10.0 mi NE 16.1 mph 23.0 mph N/A   Scattered Clouds
4:56 PM 81.0 °F 84.1 °F 69.1 °F 67% 29.96 in 10.0 mi ENE 15.0 mph 21.9 mph N/A   Scattered Clouds
5:56 PM 80.1 °F 83.2 °F 70.0 °F 71% 29.97 in 10.0 mi NE 16.1 mph 24.2 mph N/A   Mostly Cloudy
6:56 PM 78.1 °F - 70.0 °F 76% 29.98 in 10.0 mi NE 15.0 mph 25.3 mph 0.00 in Rain , Thunderstorm Light Thunderstorms and Rain
7:36 PM 77.0 °F - 69.8 °F 78% 30.00 in 9.0 mi NE 13.8 mph 21.9 mph 0.00 in Rain Light Rain
7:56 PM 78.1 °F - 69.1 °F 74% 30.00 in 10.0 mi NE 12.7 mph 20.7 mph 0.00 in   Mostly Cloudy
8:56 PM 78.1 °F - 69.1 °F 74% 30.01 in 10.0 mi NE 11.5 mph 21.9 mph 0.00 in   Mostly Cloudy
9:56 PM 78.1 °F - 68.0 °F 71% 30.02 in 10.0 mi NE 13.8 mph - N/A   Scattered Clouds
10:56 PM 78.1 °F - 66.9 °F 68% 30.02 in 10.0 mi ENE 13.8 mph - N/A   Scattered Clouds
11:56 PM 78.1 °F - 68.0 °F 71% 30.02 in 10.0 mi NE 13.8 mph - N/A   Scattered Clouds